Regional Weather Roundup
Issued by NWS

Home | Current Version | Previous Version | Graphics & Text | Print | Product List | Glossary Off
Versions: 1 2 3 4 5 6 7 8 9 10 11 12 13 14 15 16 17 18 19 20 21 22 23 24 25 26 27 28 29 30 31 32 33 34 35 36 37 38 39 40 41 42 43 44 45 46 47 48 49 50

000
ASUS43 KMKX 311600
RWRWI

WISCONSIN REGIONAL WEATHER ROUNDUP
NATIONAL WEATHER SERVICE MILWAUKEE/SULLIVAN WI
1100 AM CDT THU JUL 31 2014

NOTE: "FAIR" INDICATES FEW OR NO CLOUDS BELOW 12,000 FEET WITH NO
SIGNIFICANT WEATHER AND/OR OBSTRUCTIONS TO VISIBILITY.

WIZ001-002-006>008-014>016-023>028-311700-
NORTHWEST WISCONSIN

CITY           SKY/WX    TMP DP  RH WIND       PRES   REMARKS
SUPERIOR ARPT  SUNNY     73  61  67 CALM      29.98S
ASHLAND        SUNNY     75  57  53 W5        29.98S
HAYWARD        SUNNY     72  62  71 CALM      30.01S
SIREN          SUNNY     73  60  64 W7        30.01S
RICE LAKE      MOSUNNY   72  60  67 W8        30.03S
LADYSMITH      MOSUNNY   69  62  78 W3        30.02F
EAU CLAIRE     NOT AVBL
MENOMONIE      SUNNY     76  57  51 W8        30.03S
NEW RICHMOND   SUNNY     73  57  55 W7        30.04S
OSCEOLA        SUNNY     74  60  62 W8        30.05S
$$

WIZ003>005-009-010-017-018-311700-
NORTH CENTRAL WISCONSIN

CITY           SKY/WX    TMP DP  RH WIND       PRES   REMARKS
WOODRUFF       SUNNY     76  58  53 NW8       29.99F
RHINELANDER    SUNNY     72  53  51 NW6       30.01S
EAGLE RIVER    SUNNY     69  53  55 NW8       29.99S
LAND O LAKES   SUNNY     70  54  57 NW8       30.00S
PHILLIPS       SUNNY     69  58  67 CALM      30.00S
TOMAHAWK       SUNNY     68  59  73 CALM      30.01S
MEDFORD        PTSUNNY   68  62  79 W8        30.01F
MERRILL        SUNNY     68  61  77 N3        30.00S
$$

WIZ029-030-035-036-043>047-311700-
CENTRAL WISCONSIN

CITY           SKY/WX    TMP DP  RH WIND       PRES   REMARKS
WAUSAU         PTSUNNY   72  61  68 W7        29.99S
MOSINEE        PTSUNNY   73  63  68 W7        30.01S
MARSHFIELD     PTSUNNY   73  62  68 W10       30.01S
STEVENS POINT  PTSUNNY   70  60  70 W5        30.01S
WAUPACA        MOSUNNY   77  60  56 W8        29.99F
WAUTOMA        NOT AVBL
WISC RAPIDS    SUNNY     74  62  66 W9        30.02S
CAMP DOUGLAS   NOT AVBL
$$

WIZ011>013-019>022-031-037>040-048>050-311700-
NORTHEAST WISCONSIN

CITY           SKY/WX    TMP DP  RH WIND       PRES   REMARKS
ANTIGO         SUNNY     67  60  78 NW6       30.01S
STURGEON BAY   SUNNY     72  57  60 W8        29.98S
GREEN BAY      MOSUNNY   72  64  76 W5        29.98S
MANITOWOC      NOT AVBL
APPLETON       MOSUNNY   72  61  68 W7        30.00S
CLINTONVILLE   SUNNY     73  59  60 SW5       29.98S
OSHKOSH        MOSUNNY   73  62  68 VRB5      29.99F
$$

WIZ032>034-041-042-053>061-311700-
SOUTHWEST WISCONSIN

CITY           SKY/WX    TMP DP  RH WIND       PRES   REMARKS
LA CROSSE      SUNNY     76  62  62 CALM      30.03F
SPARTA         SUNNY     73  59  62 W5        30.04S
VIROQUA        FAIR      72  62  70 W5        30.06S
BOSCOBEL       SUNNY     77  60  55 W6        30.05S
PRAIRIE DU CHI SUNNY     75  58  56 W5        30.05S
PLATTEVILLE    FAIR      73  62  67 W9        30.08R
$$

WIZ056-057-062-063-064-067-068-311700-
SOUTH CENTRAL WISCONSIN

CITY           SKY/WX    TMP DP  RH WIND       PRES   REMARKS
BARABOO/DELLS  SUNNY     75  57  54 W6        30.03S
LONE ROCK      NOT AVBL
WATERTOWN      SUNNY     73  62  68 W5        30.02S
MADISON        SUNNY     77  61  57 VRB6      30.03S
MIDDLETON      FAIR      76  59  56 W10       30.04S
MONROE         SUNNY     73  61  64 W13       30.06R
JANESVILLE     SUNNY     79  59  50 W12       30.03S HX  80
$$

WIZ051-052-058>065-066-070>072-311700-
SOUTHEAST WISCONSIN

CITY           SKY/WX    TMP DP  RH WIND       PRES   REMARKS
MILWAUKEE      SUNNY     75  59  57 W10       30.01S
WAUKESHA       NOT AVBL
MILWAUKEE/TIMM SUNNY     73  57  56 W7        30.02R
RACINE         SUNNY     75  62  64 W7        30.03S
BURLINGTON     SUNNY     73  60  62 W5        30.03R
KENOSHA        SUNNY     76  63  64 W7        30.03S
FOND DU LAC    SUNNY     73  61  65 W7        30.00F
SHEBOYGAN      MOSUNNY   73  62  68 NW3       30.00S
WEST BEND      SUNNY     72  59  64 W9        30.01S
JUNEAU         SUNNY     72  59  64 SW10      30.03S
$$

LSZ147-162-311700-
LAKE SUPERIOR

STATION/POSITION TIME  TEMP    WIND        PRES    WAVE
                       AIR SEA DIR/SP/G            HT/PER
                 (UTC) (F)     (DEG/KT/KT) (MB)    (FT/S)
W MID LAKE BUOY  1450   49 42  240/  6/  8 1014.6R   0
PORT WING        1500   64     290/  4/  6 1015.2F
SAXON HARBOR     1540             CALM     1015.2S
$$

LMZ867-665-643>646-311700-
LAKE MICHIGAN

STATION/POSITION TIME  TEMP    WIND        PRES    WAVE
                       AIR SEA DIR/SP/G            HT/PER
                 (UTC) (F)     (DEG/KT/KT) (MB)    (FT/S)
N MID LAKE BUOY  1450   56 54  220/  8/ 10 1014.2R   1
NORTHPORT PIER   1500   64      80/  2/  4 1014.6R
SISTER BAY       1540   71     300/  8/  9   N/A
ALGOMA LAKESHORE 1436          220/  6/  7   N/A
KEWAUNEE LAKESHO 1500   63     130/  5/  6 1014.8R
SHEBOYGAN LAKESH 1500   70     300/  8/  9 1015.6F
PORT WASHINGTON  1540   76     300/  5/  8 1016.3F
ATWATER BUOY     1500   69        CALM     1017.0F
MILWAUKEE LAKESH 1500   72     250/  6/  9   N/A
S MID LAKE BUOY  1450   63 61  250/  6/ 10 1016.5R   1/ 3
KENOSHA   LAKESH 1500   72     250/  6/  9 1016.3S
$$

TC  - TEMPERATURE IN CELSIUS
VSB - VISIBILITY IN STATUTE MILES
WCI - WIND CHILL INDEX
HX  - HEAT INDEX



USA.gov is the U.S. government's official web portal to all federal, state and local government web resources and services.